Home   Weather   Medina   Past weeks

Flag for Saudi Arabia Past Weather in Medina, Saudi Arabia — Yesterday and Last 2 Weeks

Now
100 °F

Clear.


Feels Like: 97 °F
Forecast: 94 / 113 °F
Wind: 10 mph from West

Location: Madinah

Current Time: Jul 25, 2017 at 11:56:42 pm

Latest Report: Jul 25, 2017 at 11:00 pm


Visibility: 2 mi

Pressure: 29.77 "Hg (27.85 "Hg at 606m altitude)

Humidity: 18%

Dew Point: 50 °F

Location of MedinaLocation

Past Weather in Medina — Graph

°F

Medina Temperature Yesterday

Maximum temperature yesterday: 115 °F (at 2:00 pm)
Minimum temperature yesterday: 95 °F (at 6:00 am)
Average temperature yesterday: 106 °F

High & Low Weather Summary for the Past Weeks

 TemperatureHumidityPressure
High115 °F (Jul 19, 3:00 pm)25% (Jul 12, 6:00 am)29.86 "Hg (Jul 12, 6:00 am)
Low82 °F (Jul 16, 6:00 am)1% (Jul 19, 5:00 pm)29.59 "Hg (Jul 20, 5:00 pm)
Average102 °F10%29.74 "Hg
* Reported Jul 10 11:00 pm — Jul 25 11:00 pm, Medina. Weather by CustomWeather, © 2017

Note: Actual official high and low records may vary slightly from our data, if they occured in-between our weather recording intervals... More about our weather records

Advertising

Medina Weather History for the Previous 24 Hours

Scroll right to see more
 ConditionsComfort  
Time TempWeatherWind HumidityBarometerVisibility
11:00 pm
Tue, Jul 25
100 °FClear.10 mph18%29.77 "Hg2 mi
10:00 pm102 °FClear.13 mph18%29.74 "Hg2 mi
9:00 pm102 °FClear.14 mph20%29.71 "Hg2 mi
8:00 pm106 °FPassing clouds.17 mph20%29.68 "HgN/A
7:00 pm108 °FPassing clouds.22 mph16%29.65 "HgN/A
6:00 pm113 °FScattered clouds.8 mph2%29.62 "HgN/A
5:00 pm115 °FScattered clouds.6 mph1%29.62 "HgN/A
4:00 pm115 °FPassing clouds.No wind1%29.65 "HgN/A
3:00 pm115 °FSunny.10 mph1%29.65 "Hg10 mi
2:00 pm115 °FSunny.7 mph2%29.68 "Hg10 mi
1:00 pm115 °FSunny.9 mph2%29.71 "Hg10 mi
12:00 pm111 °FSunny.12 mph3%29.71 "Hg10 mi
11:00 am111 °FSunny.14 mph3%29.74 "Hg10 mi
10:00 am108 °FSunny.3 mph7%29.74 "Hg10 mi
9:00 am104 °FSunny.3 mph9%29.74 "Hg5 mi
8:00 am99 °FSunny.No wind16%29.74 "Hg5 mi
7:00 am97 °FClear.No wind18%29.74 "Hg5 mi
6:00 am97 °FSunny.3 mph19%29.71 "Hg5 mi
5:00 am97 °FClear.No wind22%29.71 "Hg10 mi
4:00 am99 °FClear.3 mph21%29.71 "Hg10 mi
3:00 am99 °FClear.3 mph22%29.71 "Hg10 mi
2:00 am100 °FClear.6 mph21%29.71 "Hg10 mi
1:00 am102 °FClear.9 mph18%29.71 "Hg10 mi
12:00 am104 °FClear.6 mph15%29.71 "Hg10 mi
11:00 pm
Mon, Jul 24
104 °FClear.14 mph15%29.71 "Hg10 mi
Weather by CustomWeather, © 2017

See weather overviewHow to use our weather pages